,,Stat6,,Stat2,,Stat8,,Stat9,,Stat10,,Wind1,,Wind1,
time,status,PA1M_AVG,status,PR1M_SUM,status,RH1M_AVG,status,SR1M_AVG,status,TA1M_AVG,status,W1dAve1m,status,W1sAve1m,
2005-07-18, 00:00:00,VALID,918.039,VALID,0,VALID,100,VALID,-0.0679233,VALID,20.0639,VALID,16,VALID,0.429142,
2005-07-18, 00:01:00,VALID,918.006,VALID,0,VALID,100,VALID,-0.0509425,VALID,20.0443,VALID,16,VALID,0.475472,
2005-07-18, 00:02:00,VALID,917.999,VALID,0,VALID,100,VALID,-0.0339617,VALID,20.0311,VALID,16,VALID,0.162427,
2005-07-18, 00:03:00,VALID,917.984,VALID,0,VALID,100,VALID,-0.0339617,VALID,20.0224,VALID,16,VALID,0.000558036,
2005-07-18, 00:04:00,VALID,918.002,VALID,0,VALID,100,VALID,-0.0339617,VALID,20.0224,VALID,16,VALID,0.216751,
2005-07-18, 00:05:00,VALID,917.995,VALID,0,VALID,100,VALID,-0.0509425,VALID,19.9958,VALID,16,VALID,0.0594113,
2005-07-18, 00:06:00,VALID,918.011,VALID,0,VALID,100,VALID,-0.0509425,VALID,19.9934,VALID,16,VALID,0.139266,
2005-07-18, 00:07:00,VALID,918.032,VALID,0,VALID,100,VALID,-0.0339617,VALID,19.9802,VALID,16,VALID,0.000952744,
2005-07-18, 00:08:00,VALID,918.054,VALID,0,VALID,100,VALID,-0.0679233,VALID,19.9832,VALID,16,VALID,0.000190549,
2005-07-18, 00:09:00,VALID,918.063,VALID,0,VALID,100,VALID,-0.0509425,VALID,19.9735,VALID,16,VALID,0.104725,
2005-07-18, 00:10:00,VALID,918.079,VALID,0,VALID,100,VALID,-0.0169808,VALID,19.9998,VALID,16,VALID,0.168241,
2005-07-18, 00:11:00,VALID,918.068,VALID,0,VALID,100,VALID,-0.0849042,VALID,19.9856,VALID,16,VALID,0.064596,
2005-07-18, 00:12:00,VALID,918.072,VALID,0,VALID,100,VALID,-0.0849042,VALID,19.9511,VALID,16,VALID,0.365589,
2005-07-18, 00:13:00,VALID,918.063,VALID,0,VALID,100,VALID,0.0169808,VALID,19.9317,VALID,16,VALID,0.237891,
2005-07-18, 00:14:00,VALID,918.042,VALID,0,VALID,100,VALID,0,VALID,19.9248,VALID,16,VALID,0.0435547,
2005-07-18, 00:15:00,VALID,918.035,VALID,0,VALID,100,VALID,0.0169808,VALID,19.9476,VALID,16,VALID,0.0352515,
2005-07-18, 00:16:00,VALID,918.02,VALID,0,VALID,100,VALID,0,VALID,19.9377,VALID,16,VALID,0.259201,
2005-07-18, 00:17:00,VALID,918.02,VALID,0,VALID,100,VALID,0,VALID,19.8801,VALID,16,VALID,0.323171,
2005-07-18, 00:18:00,VALID,918.013,VALID,0,VALID,100,VALID,0,VALID,19.8115,VALID,16,VALID,0.191051,
2005-07-18, 00:19:00,VALID,918.021,VALID,0,VALID,100,VALID,-0.0169808,VALID,19.8026,VALID,16,VALID,0.050071,
2005-07-18, 00:20:00,VALID,918.023,VALID,0,VALID,100,VALID,0,VALID,19.818,VALID,16,VALID,0,
2005-07-18, 00:21:00,VALID,918.02,VALID,0,VALID,100,VALID,0,VALID,19.8314,VALID,16,VALID,0,
2005-07-18, 00:22:00,VALID,918.005,VALID,0,VALID,100,VALID,0.0169808,VALID,19.8413,VALID,16,VALID,0.222384,
2005-07-18, 00:23:00,VALID,917.987,VALID,0,VALID,100,VALID,0,VALID,19.8438,VALID,16,VALID,0.315739,
2005-07-18, 00:24:00,VALID,917.947,VALID,0,VALID,100,VALID,0,VALID,19.8637,VALID,16,VALID,0.335175,
2005-07-18, 00:25:00,VALID,917.899,VALID,0,VALID,100,VALID,0,VALID,19.8607,VALID,16,VALID,0.0912642,
2005-07-18, 00:26:00,VALID,917.85,VALID,0,VALID,100,VALID,0,VALID,19.8736,VALID,16,VALID,0.00600962,
2005-07-18, 00:27:00,VALID,917.817,VALID,0,VALID,100,VALID,0,VALID,19.8572,VALID,16,VALID,0.000849185,
2005-07-18, 00:28:00,VALID,917.762,VALID,0,VALID,100,VALID,0,VALID,19.8083,VALID,16,VALID,0,
2005-07-18, 00:29:00,VALID,917.724,VALID,0,VALID,100,VALID,0,VALID,19.7892,VALID,16,VALID,0.0693598,
2005-07-18, 00:30:00,VALID,917.692,VALID,0,VALID,100,VALID,0,VALID,19.7576,VALID,16,VALID,0.00617733,
2005-07-18, 00:31:00,VALID,917.663,VALID,0,VALID,100,VALID,0,VALID,19.7477,VALID,16,VALID,0.00679348,
2005-07-18, 00:32:00,VALID,917.653,VALID,0,VALID,100,VALID,0,VALID,19.7375,VALID,16,VALID,0,
2005-07-18, 00:33:00,VALID,917.636,VALID,0,VALID,100,VALID,0,VALID,19.7412,VALID,16,VALID,0,
2005-07-18, 00:34:00,VALID,917.628,VALID,0,VALID,100,VALID,-0.0339617,VALID,19.7444,VALID,16,VALID,0,
2005-07-18, 00:35:00,VALID,917.641,VALID,0,VALID,100,VALID,0,VALID,19.7248,VALID,16,VALID,0.0731534,
2005-07-18, 00:36:00,VALID,917.654,VALID,0,VALID,100,VALID,0,VALID,19.7151,VALID,16,VALID,0.17702,
2005-07-18, 00:37:00,VALID,917.663,VALID,0,VALID,100,VALID,0,VALID,19.7059,VALID,16,VALID,0.062872,
2005-07-18, 00:38:00,VALID,917.673,VALID,0,VALID,100,VALID,0,VALID,19.7092,VALID,16,VALID,0.0398065,
2005-07-18, 00:39:00,VALID,917.676,VALID,0,VALID,100,VALID,0,VALID,19.696,VALID,16,VALID,0.138086,
2005-07-18, 00:40:00,VALID,917.663,VALID,0,VALID,100,VALID,0,VALID,19.6704,VALID,16,VALID,0.177557,
2005-07-18, 00:41:00,VALID,917.645,VALID,0,VALID,100,VALID,-0.0339617,VALID,19.6672,VALID,16,VALID,0.227983,
2005-07-18, 00:42:00,VALID,917.616,VALID,0,VALID,100,VALID,-0.0169808,VALID,19.6538,VALID,16,VALID,0.0424592,
2005-07-18, 00:43:00,VALID,917.586,VALID,0,VALID,100,VALID,-0.0339617,VALID,19.6443,VALID,16,VALID,0.0632102,
2005-07-18, 00:44:00,VALID,917.549,VALID,0,VALID,100,VALID,0,VALID,19.6282,VALID,16,VALID,0.0372869,
2005-07-18, 00:45:00,VALID,917.547,VALID,0,VALID,100,VALID,-0.0339617,VALID,19.6091,VALID,16,VALID,0,
2005-07-18, 00:46:00,VALID,917.534,VALID,0,VALID,100,VALID,-0.0169808,VALID,19.5929,VALID,16,VALID,0,
2005-07-18, 00:47:00,VALID,917.529,VALID,0,VALID,100,VALID,-0.0169808,VALID,19.6024,VALID,16,VALID,0,
2005-07-18, 00:48:00,VALID,917.551,VALID,0,VALID,100,VALID,0,VALID,19.625,VALID,16,VALID,0,
2005-07-18, 00:49:00,VALID,917.579,VALID,0,VALID,100,VALID,0,VALID,19.6312,VALID,16,VALID,0.143895,
2005-07-18, 00:50:00,VALID,917.613,VALID,0,VALID,100,VALID,-0.0169808,VALID,19.5768,VALID,16,VALID,0.000195313,
2005-07-18, 00:51:00,VALID,917.645,VALID,0,VALID,99.9326,VALID,0,VALID,19.5189,VALID,16,VALID,0.599927,
2005-07-18, 00:52:00,VALID,917.668,VALID,0,VALID,100,VALID,0.0169808,VALID,19.5311,VALID,16,VALID,0.807813,
2005-07-18, 00:53:00,VALID,917.694,VALID,0,VALID,100,VALID,0,VALID,19.6347,VALID,16,VALID,0.786044,
2005-07-18, 00:54:00,VALID,917.72,VALID,0,VALID,100,VALID,0,VALID,19.661,VALID,16,VALID,0.817951,
2005-07-18, 00:55:00,VALID,917.72,VALID,0,VALID,100,VALID,-0.0339617,VALID,19.6672,VALID,16,VALID,0.911932,
2005-07-18, 00:56:00,VALID,917.711,VALID,0,VALID,100,VALID,0,VALID,19.6575,VALID,16,VALID,0.875545,
2005-07-18, 00:57:00,VALID,917.695,VALID,0,VALID,100,VALID,0,VALID,19.661,VALID,16,VALID,0.90067,
2005-07-18, 00:58:00,VALID,917.659,VALID,0,VALID,100,VALID,-0.0169808,VALID,19.6446,VALID,16,VALID,0.691964,
2005-07-18, 00:59:00,VALID,917.619,VALID,0,VALID,100,VALID,0,VALID,19.6476,VALID,16,VALID,0.269231,
2005-07-18, 01:00:00,VALID,917.58,VALID,0,VALID,100,VALID,0,VALID,19.6801,VALID,355,VALID,0.674893,
2005-07-18, 01:01:00,VALID,917.531,VALID,0,VALID,100,VALID,0,VALID,19.6963,VALID,351,VALID,0.640253,
2005-07-18, 01:02:00,VALID,917.483,VALID,0,VALID,100,VALID,0.0169808,VALID,19.7089,VALID,5,VALID,0.61452,
2005-07-18, 01:03:00,VALID,917.469,VALID,0,VALID,100,VALID,0.0169808,VALID,19.7318,VALID,356,VALID,0.808689,
2005-07-18, 01:04:00,VALID,917.448,VALID,0,VALID,100,VALID,-0.0169808,VALID,19.7313,VALID,356,VALID,0.85404,
2005-07-18, 01:05:00,VALID,917.436,VALID,0,VALID,100,VALID,0,VALID,19.7412,VALID,355,VALID,0.720796,
2005-07-18, 01:06:00,VALID,917.416,VALID,0,VALID,100,VALID,0,VALID,19.7574,VALID,1,VALID,0.878239,
2005-07-18, 01:07:00,VALID,917.412,VALID,0,VALID,100,VALID,0,VALID,19.7641,VALID,16,VALID,1.11739,
2005-07-18, 01:08:00,VALID,917.371,VALID,0,VALID,100,VALID,0.0169808,VALID,19.7442,VALID,15,VALID,1.02762,
2005-07-18, 01:09:00,VALID,917.349,VALID,0,VALID,100,VALID,0,VALID,19.7415,VALID,10,VALID,1.07478,
2005-07-18, 01:10:00,VALID,917.319,VALID,0,VALID,100,VALID,-0.0339617,VALID,19.7571,VALID,360,VALID,0.939596,
2005-07-18, 01:11:00,VALID,917.321,VALID,0,VALID,100,VALID,-0.0339617,VALID,19.7606,VALID,12,VALID,0.854651,
2005-07-18, 01:12:00,VALID,917.301,VALID,0,VALID,100,VALID,0.0169808,VALID,19.7603,VALID,345,VALID,0.396307,
2005-07-18, 01:13:00,VALID,917.329,VALID,0,VALID,100,VALID,0,VALID,19.7608,VALID,9,VALID,0.473323,
2005-07-18, 01:14:00,VALID,917.345,VALID,0,VALID,100,VALID,0,VALID,19.7581,VALID,359,VALID,0.34266,
2005-07-18, 01:15:00,VALID,917.341,VALID,0,VALID,100,VALID,0,VALID,19.7278,VALID,359,VALID,0.0443892,
2005-07-18, 01:16:00,VALID,917.346,VALID,0,VALID,100,VALID,-0.0169808,VALID,19.7315,VALID,357,VALID,0.186719,
2005-07-18, 01:17:00,VALID,917.333,VALID,0,VALID,100,VALID,-0.0169808,VALID,19.7705,VALID,357,VALID,0.211328,
2005-07-18, 01:18:00,VALID,917.321,VALID,0,VALID,100,VALID,0,VALID,19.7862,VALID,357,VALID,0,
2005-07-18, 01:19:00,VALID,917.301,VALID,0,VALID,100,VALID,0,VALID,19.7959,VALID,357,VALID,0,
2005-07-18, 01:20:00,VALID,917.287,VALID,0,VALID,100,VALID,-0.0339617,VALID,19.8252,VALID,357,VALID,0.00390625,
2005-07-18, 01:21:00,VALID,917.299,VALID,0,VALID,100,VALID,0,VALID,19.8314,VALID,357,VALID,0.0544922,
2005-07-18, 01:22:00,VALID,917.319,VALID,0,VALID,100,VALID,-0.0169808,VALID,19.8383,VALID,357,VALID,0.00872093,
2005-07-18, 01:23:00,VALID,917.343,VALID,0,VALID,100,VALID,0,VALID,19.8448,VALID,357,VALID,0,
2005-07-18, 01:24:00,VALID,917.343,VALID,0,VALID,100,VALID,0,VALID,19.8473,VALID,357,VALID,0,
2005-07-18, 01:25:00,VALID,917.374,VALID,0,VALID,100,VALID,0,VALID,19.8642,VALID,357,VALID,0.270139,
2005-07-18, 01:26:00,VALID,917.387,VALID,0,VALID,100,VALID,0.0169808,VALID,19.8704,VALID,357,VALID,0.326672,
2005-07-18, 01:27:00,VALID,917.412,VALID,0,VALID,100,VALID,0,VALID,19.8667,VALID,357,VALID,0.0124628,
2005-07-18, 01:28:00,VALID,917.44,VALID,0,VALID,100,VALID,0,VALID,19.8801,VALID,357,VALID,0.0857515,
2005-07-18, 01:29:00,VALID,917.456,VALID,0,VALID,100,VALID,0,VALID,19.8865,VALID,357,VALID,0.0784884,
2005-07-18, 01:30:00,VALID,917.48,VALID,0,VALID,100,VALID,0,VALID,19.8898,VALID,1,VALID,0.495427,
2005-07-18, 01:31:00,VALID,917.492,VALID,0,VALID,100,VALID,0.0169808,VALID,19.8632,VALID,50,VALID,1.03367,
2005-07-18, 01:32:00,VALID,917.501,VALID,0,VALID,100,VALID,0,VALID,19.8053,VALID,64,VALID,1.47552,
2005-07-18, 01:33:00,VALID,917.508,VALID,0,VALID,100,VALID,0,VALID,19.7442,VALID,72,VALID,1.29539,
2005-07-18, 01:34:00,VALID,917.496,VALID,0,VALID,100,VALID,-0.0169808,VALID,19.7258,VALID,74,VALID,1.07729,
2005-07-18, 01:35:00,VALID,917.466,VALID,0,VALID,100,VALID,0,VALID,19.6898,VALID,57,VALID,1.25799,
2005-07-18, 01:36:00,VALID,917.439,VALID,0,VALID,100,VALID,-0.0169808,VALID,19.657,VALID,54,VALID,1.44122,
2005-07-18, 01:37:00,VALID,917.391,VALID,0,VALID,100,VALID,-0.0679233,VALID,19.6347,VALID,44,VALID,1.29557,
2005-07-18, 01:38:00,VALID,917.338,VALID,0,VALID,100,VALID,0,VALID,19.6215,VALID,44,VALID,1.02852,
2005-07-18, 01:39:00,VALID,917.285,VALID,0,VALID,100,VALID,0,VALID,19.6376,VALID,41,VALID,0.976935,
2005-07-18, 01:40:00,VALID,917.231,VALID,0,VALID,100,VALID,-0.0169808,VALID,19.6578,VALID,36,VALID,0.640434,
2005-07-18, 01:41:00,VALID,917.183,VALID,0,VALID,100,VALID,-0.0169808,VALID,19.6476,VALID,31,VALID,0.458394,
2005-07-18, 01:42:00,VALID,917.136,VALID,0,VALID,100,VALID,0,VALID,19.6376,VALID,31,VALID,0.426736,
2005-07-18, 01:43:00,VALID,917.087,VALID,0,VALID,100,VALID,0,VALID,19.6508,VALID,31,VALID,0.40696,
2005-07-18, 01:44:00,VALID,917.068,VALID,0,VALID,100,VALID,0,VALID,19.6471,VALID,31,VALID,0.266513,
2005-07-18, 01:45:00,VALID,917.038,VALID,0,VALID,100,VALID,0.0509425,VALID,19.6637,VALID,31,VALID,0.134411,
2005-07-18, 01:46:00,VALID,917.03,VALID,0,VALID,100,VALID,-0.0169808,VALID,19.6605,VALID,339,VALID,0.327553,
2005-07-18, 01:47:00,VALID,917.004,VALID,0,VALID,100,VALID,0,VALID,19.6538,VALID,274,VALID,0.415278,
2005-07-18, 01:48:00,VALID,916.984,VALID,0,VALID,100,VALID,-0.0169808,VALID,19.6535,VALID,250,VALID,0.144985,
2005-07-18, 01:49:00,VALID,916.966,VALID,0,VALID,100,VALID,0,VALID,19.6473,VALID,250,VALID,0,
2005-07-18, 01:50:00,VALID,916.957,VALID,0,VALID,100,VALID,0.0169808,VALID,19.6573,VALID,250,VALID,0,
2005-07-18, 01:51:00,VALID,916.941,VALID,0,VALID,100,VALID,0,VALID,19.6573,VALID,250,VALID,0.015625,
2005-07-18, 01:52:00,VALID,916.923,VALID,0,VALID,100,VALID,-0.0169808,VALID,19.6796,VALID,250,VALID,0.0169271,
2005-07-18, 01:53:00,VALID,916.904,VALID,0,VALID,100,VALID,0,VALID,19.6831,VALID,250,VALID,0.238735,
2005-07-18, 01:54:00,VALID,916.889,VALID,0,VALID,100,VALID,0,VALID,19.6893,VALID,249,VALID,0.120117,
2005-07-18, 01:55:00,VALID,916.85,VALID,0,VALID,100,VALID,-0.0169808,VALID,19.6896,VALID,249,VALID,0.0661337,
2005-07-18, 01:56:00,VALID,916.82,VALID,0,VALID,100,VALID,0,VALID,19.6828,VALID,249,VALID,0,
2005-07-18, 01:57:00,VALID,916.788,VALID,0,VALID,100,VALID,-0.0169808,VALID,19.6858,VALID,249,VALID,0.00109012,
2005-07-18, 01:58:00,VALID,916.772,VALID,0,VALID,100,VALID,0.0169808,VALID,19.7117,VALID,249,VALID,0.197569,
2005-07-18, 01:59:00,VALID,916.758,VALID,0,VALID,100,VALID,0.0509425,VALID,19.7181,VALID,249,VALID,0.270833,
2005-07-18, 02:00:00,VALID,916.737,VALID,0,VALID,100,VALID,0.0169808,VALID,19.7305,VALID,249,VALID,0.196766,
2005-07-18, 02:01:00,VALID,916.707,VALID,0,VALID,100,VALID,0.0339617,VALID,19.7633,VALID,249,VALID,0.00111607,
2005-07-18, 02:02:00,VALID,916.68,VALID,0,VALID,100,VALID,0.0339617,VALID,19.7832,VALID,249,VALID,0.00327035,
2005-07-18, 02:03:00,VALID,916.655,VALID,0,VALID,100,VALID,0.0169808,VALID,19.7892,VALID,249,VALID,0.00106534,
2005-07-18, 02:04:00,VALID,916.638,VALID,0,VALID,100,VALID,0.0339617,VALID,19.8284,VALID,249,VALID,0.00285823,
2005-07-18, 02:05:00,VALID,916.612,VALID,0,VALID,100,VALID,0.0339617,VALID,19.8508,VALID,249,VALID,0.000868056,
2005-07-18, 02:06:00,VALID,916.61,VALID,0,VALID,100,VALID,0.0509425,VALID,19.8696,VALID,249,VALID,0.21548,
2005-07-18, 02:07:00,VALID,916.59,VALID,0,VALID,100,VALID,0.0679233,VALID,19.8922,VALID,249,VALID,0.00342988,
2005-07-18, 02:08:00,VALID,916.577,VALID,0,VALID,100,VALID,-0.0169808,VALID,19.8987,VALID,249,VALID,0,
2005-07-18, 02:09:00,VALID,916.545,VALID,0,VALID,100,VALID,0.0509425,VALID,19.8987,VALID,252,VALID,0.190789,
2005-07-18, 02:10:00,VALID,916.559,VALID,0,VALID,100,VALID,0,VALID,19.8696,VALID,252,VALID,0.019077,
2005-07-18, 02:11:00,VALID,916.566,VALID,0,VALID,100,VALID,0.0169808,VALID,19.8602,VALID,252,VALID,0,
2005-07-18, 02:12:00,VALID,916.568,VALID,0,VALID,100,VALID,0.0339617,VALID,19.8503,VALID,252,VALID,0,
2005-07-18, 02:13:00,VALID,916.57,VALID,0,VALID,100,VALID,0.0169808,VALID,19.8542,VALID,252,VALID,0,
2005-07-18, 02:14:00,VALID,916.584,VALID,0,VALID,100,VALID,0.0169808,VALID,19.8607,VALID,252,VALID,0,
2005-07-18, 02:15:00,VALID,916.573,VALID,0,VALID,100,VALID,0.0509425,VALID,19.8408,VALID,252,VALID,0,
2005-07-18, 02:16:00,VALID,916.575,VALID,0,VALID,100,VALID,0,VALID,19.8378,VALID,252,VALID,0,
2005-07-18, 02:17:00,VALID,916.596,VALID,0,VALID,100,VALID,0.0509425,VALID,19.8441,VALID,252,VALID,0,
2005-07-18, 02:18:00,VALID,916.607,VALID,0,VALID,100,VALID,0.0339617,VALID,19.8344,VALID,252,VALID,0,
2005-07-18, 02:19:00,VALID,916.642,VALID,0,VALID,100,VALID,0,VALID,19.8411,VALID,252,VALID,0,
2005-07-18, 02:20:00,VALID,916.657,VALID,0,VALID,100,VALID,0.0339617,VALID,19.8249,VALID,252,VALID,0,
2005-07-18, 02:21:00,VALID,916.673,VALID,0,VALID,100,VALID,0.0339617,VALID,19.8314,VALID,252,VALID,0.0729802,
2005-07-18, 02:22:00,VALID,916.69,VALID,0,VALID,100,VALID,0,VALID,19.8341,VALID,252,VALID,0.00677083,
2005-07-18, 02:23:00,VALID,916.665,VALID,0,VALID,100,VALID,0.0169808,VALID,19.8602,VALID,252,VALID,0,
2005-07-18, 02:24:00,VALID,916.665,VALID,0,VALID,100,VALID,0.0169808,VALID,19.893,VALID,252,VALID,0,
2005-07-18, 02:25:00,VALID,916.646,VALID,0,VALID,100,VALID,0.0339617,VALID,19.8925,VALID,252,VALID,0.0487847,
2005-07-18, 02:26:00,VALID,916.633,VALID,0,VALID,100,VALID,0,VALID,19.9154,VALID,252,VALID,0.295473,
2005-07-18, 02:27:00,VALID,916.616,VALID,0,VALID,100,VALID,0,VALID,19.9377,VALID,301,VALID,0.525195,
2005-07-18, 02:28:00,VALID,916.611,VALID,0,VALID,100,VALID,0.0169808,VALID,19.9345,VALID,30,VALID,0.599382,
2005-07-18, 02:29:00,VALID,916.622,VALID,0,VALID,100,VALID,0.0169808,VALID,19.9511,VALID,30,VALID,0.584263,
2005-07-18, 02:30:00,VALID,916.64,VALID,0,VALID,100,VALID,0,VALID,19.9606,VALID,24,VALID,0.693359,
2005-07-18, 02:31:00,VALID,916.649,VALID,0,VALID,100,VALID,0.0339617,VALID,19.9697,VALID,30,VALID,0.710175,
2005-07-18, 02:32:00,VALID,916.663,VALID,0,VALID,100,VALID,0.0169808,VALID,19.9762,VALID,45,VALID,0.775868,
2005-07-18, 02:33:00,VALID,916.681,VALID,0,VALID,100,VALID,0.0169808,VALID,19.9633,VALID,58,VALID,0.645833,
2005-07-18, 02:34:00,VALID,916.675,VALID,0,VALID,100,VALID,0.0169808,VALID,19.9412,VALID,62,VALID,0.527253,
2005-07-18, 02:35:00,VALID,916.663,VALID,0,VALID,100,VALID,0,VALID,19.9124,VALID,64,VALID,0.526163,
2005-07-18, 02:36:00,VALID,916.659,VALID,0,VALID,100,VALID,0,VALID,19.8761,VALID,75,VALID,0.743304,
2005-07-18, 02:37:00,VALID,916.671,VALID,0,VALID,100,VALID,0.0509425,VALID,19.8537,VALID,75,VALID,0.532812,
2005-07-18, 02:38:00,VALID,916.659,VALID,0,VALID,100,VALID,0,VALID,19.8215,VALID,80,VALID,0.69436,
2005-07-18, 02:39:00,VALID,916.665,VALID,0,VALID,100,VALID,0.0169808,VALID,19.7988,VALID,91,VALID,0.596354,
2005-07-18, 02:40:00,VALID,916.657,VALID,0,VALID,100,VALID,0.0169808,VALID,19.7658,VALID,91,VALID,0.469703,
2005-07-18, 02:41:00,VALID,916.646,VALID,0,VALID,100,VALID,0.0169808,VALID,19.7598,VALID,91,VALID,0.494851,
2005-07-18, 02:42:00,VALID,916.611,VALID,0,VALID,100,VALID,0,VALID,19.7539,VALID,91,VALID,0.20957,
2005-07-18, 02:43:00,VALID,916.59,VALID,0,VALID,100,VALID,0,VALID,19.7606,VALID,91,VALID,0.404576,
2005-07-18, 02:44:00,VALID,916.566,VALID,0,VALID,100,VALID,0,VALID,19.78,VALID,91,VALID,0.122514,
2005-07-18, 02:45:00,VALID,916.529,VALID,0,VALID,100,VALID,0,VALID,19.8056,VALID,91,VALID,0,
2005-07-18, 02:46:00,VALID,916.505,VALID,0,VALID,100,VALID,0,VALID,19.8314,VALID,91,VALID,0,
2005-07-18, 02:47:00,VALID,916.495,VALID,0,VALID,100,VALID,0,VALID,19.8602,VALID,91,VALID,0.0299782,
2005-07-18, 02:48:00,VALID,916.462,VALID,0,VALID,100,VALID,0.0509425,VALID,19.8535,VALID,91,VALID,0.252841,
2005-07-18, 02:49:00,VALID,916.443,VALID,0,VALID,100,VALID,0.0169808,VALID,19.8438,VALID,91,VALID,0.14027,
2005-07-18, 02:50:00,VALID,916.425,VALID,0,VALID,100,VALID,0.0169808,VALID,19.8505,VALID,91,VALID,0.124814,
2005-07-18, 02:51:00,VALID,916.409,VALID,0,VALID,100,VALID,0.0169808,VALID,19.8381,VALID,91,VALID,0.139101,
2005-07-18, 02:52:00,VALID,916.409,VALID,0,VALID,100,VALID,0,VALID,19.8314,VALID,91,VALID,0,
2005-07-18, 02:53:00,VALID,916.391,VALID,0,VALID,100,VALID,0,VALID,19.851,VALID,91,VALID,0.112233,
2005-07-18, 02:54:00,VALID,916.377,VALID,0,VALID,100,VALID,0,VALID,19.8344,VALID,91,VALID,0.0662109,
2005-07-18, 02:55:00,VALID,916.372,VALID,0,VALID,100,VALID,0.0339617,VALID,19.8339,VALID,91,VALID,0.0580611,
2005-07-18, 02:56:00,VALID,916.32,VALID,0,VALID,100,VALID,0,VALID,19.8311,VALID,91,VALID,0.0102307,
2005-07-18, 02:57:00,VALID,916.304,VALID,0,VALID,100,VALID,0.0509425,VALID,19.8277,VALID,91,VALID,0.150799,
2005-07-18, 02:58:00,VALID,916.286,VALID,0,VALID,100,VALID,-0.0679233,VALID,19.8388,VALID,91,VALID,0.0674055,
2005-07-18, 02:59:00,VALID,916.272,VALID,0,VALID,100,VALID,-0.0339617,VALID,19.8426,VALID,91,VALID,0,
2005-07-18, 03:00:00,VALID,916.227,VALID,0,VALID,100,VALID,0,VALID,19.8284,VALID,91,VALID,0.0103561,
2005-07-18, 03:01:00,VALID,916.205,VALID,0,VALID,100,VALID,-0.0679233,VALID,19.8225,VALID,91,VALID,0,
2005-07-18, 03:02:00,VALID,916.183,VALID,0,VALID,100,VALID,-0.0509425,VALID,19.7993,VALID,91,VALID,0,
2005-07-18, 03:03:00,VALID,916.168,VALID,0,VALID,100,VALID,0,VALID,19.7996,VALID,91,VALID,0.00887784,
2005-07-18, 03:04:00,VALID,916.164,VALID,0,VALID,100,VALID,-0.0339617,VALID,19.7897,VALID,91,VALID,0.190234,
2005-07-18, 03:05:00,VALID,916.142,VALID,0,VALID,100,VALID,-0.0679233,VALID,19.8036,VALID,91,VALID,0.259028,
2005-07-18, 03:06:00,VALID,916.124,VALID,0,VALID,100,VALID,-0.0679233,VALID,19.7864,VALID,91,VALID,0.00533537,
2005-07-18, 03:07:00,VALID,916.111,VALID,0,VALID,100,VALID,-0.0169808,VALID,19.8063,VALID,91,VALID,0.00090843,
2005-07-18, 03:08:00,VALID,916.089,VALID,0,VALID,100,VALID,-0.0509425,VALID,19.8162,VALID,79,VALID,0.266715,
2005-07-18, 03:09:00,VALID,916.056,VALID,0,VALID,100,VALID,-0.0169808,VALID,19.816,VALID,35,VALID,0.567708,
2005-07-18, 03:10:00,VALID,916.054,VALID,0,VALID,100,VALID,-0.0169808,VALID,19.8257,VALID,21,VALID,0.773793,
2005-07-18, 03:11:00,VALID,916.042,VALID,0,VALID,100,VALID,-0.0339617,VALID,19.8319,VALID,21,VALID,0.351215,
2005-07-18, 03:12:00,VALID,916.054,VALID,0,VALID,100,VALID,-0.0169808,VALID,19.8513,VALID,21,VALID,0.019077,
2005-07-18, 03:13:00,VALID,916.072,VALID,0,VALID,100,VALID,-0.0509425,VALID,19.8349,VALID,21,VALID,0,
2005-07-18, 03:14:00,VALID,916.06,VALID,0,VALID,100,VALID,-0.0169808,VALID,19.8386,VALID,21,VALID,0,
2005-07-18, 03:15:00,VALID,916.065,VALID,0,VALID,100,VALID,-0.0169808,VALID,19.8319,VALID,21,VALID,0,
2005-07-18, 03:16:00,VALID,916.04,VALID,0,VALID,100,VALID,-0.0509425,VALID,19.8254,VALID,20,VALID,0.353646,
2005-07-18, 03:17:00,VALID,916.015,VALID,0,VALID,100,VALID,-0.0169808,VALID,19.8152,VALID,19,VALID,1.1965,
2005-07-18, 03:18:00,VALID,916.002,VALID,0,VALID,100,VALID,0,VALID,19.7966,VALID,15,VALID,1.13567,
2005-07-18, 03:19:00,VALID,915.996,VALID,0,VALID,100,VALID,0,VALID,19.7576,VALID,16,VALID,1.02628,
2005-07-18, 03:20:00,VALID,915.992,VALID,0,VALID,100,VALID,-0.0169808,VALID,19.7186,VALID,15,VALID,0.753089,
2005-07-18, 03:21:00,VALID,916.008,VALID,0,VALID,100,VALID,-0.0169808,VALID,19.697,VALID,16,VALID,0.852865,
2005-07-18, 03:22:00,VALID,916.029,VALID,0,VALID,100,VALID,-0.0509425,VALID,19.6545,VALID,15,VALID,0.645833,
2005-07-18, 03:23:00,VALID,916.061,VALID,0,VALID,100,VALID,-0.0339617,VALID,19.6222,VALID,15,VALID,0.400174,
2005-07-18, 03:24:00,VALID,916.096,VALID,0,VALID,100,VALID,-0.0509425,VALID,19.5932,VALID,15,VALID,0.295673,
2005-07-18, 03:25:00,VALID,916.136,VALID,0,VALID,100,VALID,-0.0169808,VALID,19.5959,VALID,15,VALID,0.175305,
2005-07-18, 03:26:00,VALID,916.155,VALID,0,VALID,100,VALID,-0.0169808,VALID,19.5964,VALID,15,VALID,0.277798,
2005-07-18, 03:27:00,VALID,916.189,VALID,0,VALID,100,VALID,0,VALID,19.577,VALID,15,VALID,0.29851,
2005-07-18, 03:28:00,VALID,916.197,VALID,0,VALID,100,VALID,-0.0339617,VALID,19.5671,VALID,15,VALID,0.150298,
2005-07-18, 03:29:00,VALID,916.188,VALID,0,VALID,100,VALID,0,VALID,19.5671,VALID,15,VALID,0.304324,
2005-07-18, 03:30:00,VALID,916.171,VALID,0,VALID,100,VALID,0,VALID,19.5664,VALID,15,VALID,0.34811,
2005-07-18, 03:31:00,VALID,916.169,VALID,0,VALID,100,VALID,0,VALID,19.5574,VALID,15,VALID,0.191992,
2005-07-18, 03:32:00,VALID,916.157,VALID,0,VALID,100,VALID,0,VALID,19.5313,VALID,15,VALID,0.150618,
2005-07-18, 03:33:00,VALID,916.139,VALID,0,VALID,100,VALID,0,VALID,19.5316,VALID,5,VALID,0.593928,
2005-07-18, 03:34:00,VALID,916.13,VALID,0,VALID,100,VALID,0,VALID,19.5219,VALID,343,VALID,1.01599,
2005-07-18, 03:35:00,VALID,916.117,VALID,0,VALID,100,VALID,0,VALID,19.5455,VALID,314,VALID,0.909108,
2005-07-18, 03:36:00,VALID,916.09,VALID,0,VALID,100,VALID,-0.0169808,VALID,19.5706,VALID,324,VALID,0.591388,
2005-07-18, 03:37:00,VALID,916.075,VALID,0,VALID,100,VALID,0,VALID,19.5778,VALID,360,VALID,0.896129,
2005-07-18, 03:38:00,VALID,916.071,VALID,0,VALID,100,VALID,0,VALID,19.5413,VALID,10,VALID,0.677379,
2005-07-18, 03:39:00,VALID,916.065,VALID,0,VALID,100,VALID,-0.0169808,VALID,19.5184,VALID,3,VALID,0.710069,
2005-07-18, 03:40:00,VALID,916.062,VALID,0,VALID,100,VALID,-0.0169808,VALID,19.5157,VALID,9,VALID,0.631214,
2005-07-18, 03:41:00,VALID,916.042,VALID,0,VALID,100,VALID,0,VALID,19.5028,VALID,360,VALID,0.56141,
2005-07-18, 03:42:00,VALID,916.046,VALID,0,VALID,100,VALID,0,VALID,19.5028,VALID,356,VALID,0.832122,
2005-07-18, 03:43:00,VALID,916.047,VALID,0,VALID,100,VALID,-0.135847,VALID,19.4752,VALID,342,VALID,1.48056,
2005-07-18, 03:44:00,VALID,916.063,VALID,0,VALID,100,VALID,-0.118866,VALID,19.4463,VALID,338,VALID,1.05841,
2005-07-18, 03:45:00,VALID,916.07,VALID,0,VALID,100,VALID,-0.118866,VALID,19.4205,VALID,349,VALID,1.08861,
2005-07-18, 03:46:00,VALID,916.078,VALID,0,VALID,100,VALID,-0.101885,VALID,19.3905,VALID,349,VALID,0.925781,